Lid_Strength_Index
5 11 13 8 6 7 7 8 9 7 6 7 7 7 6 5 5 5 5 4 4 4 2 2 1 1 1 0 0 0 0 -0 -0 0 1 1 1 0 -0 -1 -2 -2 -2 -1
7 11 6 6 6 7 7 9 8 7 6 7 6 7 6 5 5 5 5 4 4 4 3 2 2 1 1 1 0 0 0 0 0 0 0 0 0 -0 -0 -1 -1 -2 -2 -2
12 8 6 6 7 8 8 8 8 8 6 6 6 7 6 5 5 4 4 4 3 3 3 3 2 2 1 1 1 1 0 0 0 -0 -0 -0 -0 0 1 0 -0 -1 -1 -1
9 5 7 7 7 7 12 6 7 7 8 13 7 12 7 6 5 5 4 4 3 3 3 2 2 2 2 1 1 0 0 0 -0 -0 0 1 1 2 1 0 0 -0 -1 -1
11 7 7 7 7 6 8 6 6 7 8 8 7 11 8 6 6 5 4 4 3 3 2 2 2 2 1 1 1 0 0 0 -0 -0 0 1 1 1 0 0 0 -0 -1 -1
7 5 6 6 5 5 5 6 7 6 9 16 9 10 12 10 8 5 4 3 3 3 2 2 1 1 1 1 1 0 0 0 -0 0 -0 1 1 1 1 1 1 1 0 -0
7 7 5 5 7 5 6 8 12 13 12 12 7 9 9 7 6 4 4 4 3 2 2 2 2 2 1 1 1 1 0 1 0 0 0 0 0 1 1 1 1 1 1 1
10 10 6 5 6 8 7 7 10 13 13 10 7 10 9 5 4 4 3 3 3 3 2 2 2 2 1 1 1 1 1 1 1 1 0 0 -0 1 1 1 1 1 1 0
9 9 5 5 5 5 8 9 6 8 8 9 8 7 6 5 5 4 4 3 3 3 2 2 2 1 1 1 1 1 1 1 0 0 0 0 0 0 1 -0 -0 0 0 0
8 10 6 6 5 5 6 5 8 8 12 12 10 9 10 6 6 4 4 4 3 2 2 2 2 1 1 1 1 1 1 1 1 0 0 0 0 -0 -0 -0 0 0 0 -0
6 8 7 5 6 7 6 7 7 7 8 10 11 10 5 6 5 5 4 3 3 3 2 2 2 1 1 1 1 1 1 1 1 0 0 0 0 0 -0 0 0 -0 -0 -0
5 7 9 7 5 5 5 6 6 9 9 8 9 9 4 4 4 4 4 3 3 2 2 2 2 2 2 1 1 1 1 1 1 0 0 0 0 0 0 0 0 -0 0 -0
5 7 9 8 6 5 7 6 6 6 7 9 10 9 4 4 4 3 3 3 3 2 2 2 2 2 2 2 1 1 1 1 1 1 1 1 0 0 0 0 -0 -0 -0 0
5 6 7 9 8 6 7 7 6 6 9 8 8 7 6 5 5 4 4 3 3 3 3 3 2 2 2 2 1 1 1 1 1 1 1 1 0 0 0 0 0 0 -0 0
5 7 6 6 6 6 7 7 7 7 7 8 7 7 6 5 5 4 3 3 3 3 3 3 3 2 2 2 2 1 1 1 0 1 1 1 0 0 0 0 0 0 0 0
4 7 6 7 6 6 7 6 6 6 6 7 6 7 5 4 4 4 4 4 4 3 3 3 2 2 2 2 1 1 1 0 0 1 1 0 0 0 1 1 1 0 1 1
5 6 7 9 7 7 9 7 7 6 6 6 8 7 5 5 5 4 4 4 4 3 3 3 3 2 2 2 1 1 1 0 0 0 1 1 1 1 1 1 1 1 1 1
5 6 7 9 8 12 7 5 5 6 6 5 6 6 5 4 4 3 3 4 3 3 3 2 2 2 1 1 1 0 1 0 1 1 1 1 1 1 1 1 1 1 1 1
4 6 8 9 9 8 7 6 6 7 7 5 6 5 5 4 4 4 3 2 3 2 2 2 2 1 1 1 0 1 1 1 2 1 1 1 1 1 1 1 1 1 1 1
5 5 8 9 11 12 7 5 4 5 9 5 5 5 5 4 7 5 3 2 2 2 2 2 1 1 1 1 1 1 2 1 2 1 1 1 1 1 1 1 1 1 1 1
7 7 9 9 10 8 6 5 4 10 9 5 4 4 4 5 4 3 2 2 2 2 2 1 1 2 1 1 1 1 2 2 1 1 1 1 1 1 1 1 1 1 1 1
8 9 9 8 10 11 5 5 8 6 4 4 4 4 4 3 3 3 2 2 2 2 2 2 2 2 1 1 1 2 2 1 1 1 1 1 1 1 1 1 1 1 1 2
8 7 8 8 8 5 4 4 3 3 4 4 3 3 3 3 3 3 3 3 2 2 2 2 2 2 1 1 1 2 1 1 1 1 1 1 1 1 1 1 2 2 2 2
5 5 7 6 5 5 4 3 3 3 3 3 3 3 3 4 3 3 3 3 3 2 2 2 2 2 2 1 1 1 1 1 1 2 2 1 2 2 1 1 1 2 2 3
5 5 6 6 5 5 4 4 3 3 3 3 3 3 3 3 3 3 3 2 2 2 2 2 2 2 2 1 1 1 1 1 2 2 2 2 2 2 2 2 2 2 1 2
4 5 6 7 5 5 4 3 3 4 4 3 3 3 3 3 3 2 3 2 2 2 2 2 2 2 2 1 1 1 1 1 2 2 2 2 2 2 2 2 2 4 4 7